Home   Weather   Wolverhampton   Past weeks

Flag for United Kingdom Past Weather in Wolverhampton, England, United Kingdom — Yesterday and Last 2 Weeks

Now
41 °F

Sprinkles. Broken clouds.


Feels Like: 35 °F
Forecast: 32 / 50 °F
Wind: 9 mph from North

Location: Birmingham / Airport

Current Time: Apr 26, 2017 at 8:39:39 pm

Latest Report: Apr 26, 2017 at 8:20 pm


Visibility: 6 mi

Pressure: 30.12 "Hg

Humidity: 76%

Dew Point: 34 °F

Location of WolverhamptonLocation

Past Weather in Wolverhampton — Graph

°F

Wolverhampton Temperature Yesterday

Maximum temperature yesterday: 48 °F (at 12:50 pm)
Minimum temperature yesterday: 36 °F (at 3:20 am)
Average temperature yesterday: 40 °F

High & Low Weather Summary for the Past Weeks

 TemperatureHumidityPressure
High59 °F (Apr 22, 3:20 pm)100% (Apr 12, 7:20 pm)30.63 "Hg (Apr 12, 7:20 pm)
Low32 °F (Apr 23, 3:50 am)35% (Apr 18, 5:50 pm)29.89 "Hg (Apr 25, 3:50 am)
Average48 °F71%30.22 "Hg
* Reported Apr 11 6:20 pm — Apr 26 6:50 pm, Wolverhampton, Weather by CustomWeather, © 2017

Note: Actual official high and low records may vary slightly from our data, if they occured in-between our weather recording intervals... More about our weather records

Advertising

Wolverhampton Weather History for the Previous 24 Hours

Scroll right to see more
 ConditionsComfort  
Time TempWeatherWind HumidityBarometerVisibility
6:50 pm
Wed, Apr 26
45 °FScattered showers. Scattered clouds.6 mph61%30.09 "HgN/A
6:20 pm46 °FScattered showers. Passing clouds.10 mph46%30.09 "HgN/A
5:50 pm48 °FScattered showers. Scattered clouds.5 mph46%30.09 "HgN/A
5:20 pm46 °FScattered showers. Scattered clouds.12 mph53%30.09 "HgN/A
4:50 pm48 °FScattered showers. Scattered clouds.12 mph46%30.09 "HgN/A
4:20 pm48 °FScattered showers. Scattered clouds.10 mph46%30.09 "HgN/A
3:50 pm46 °FScattered showers. Scattered clouds.9 mph53%30.09 "HgN/A
3:20 pm45 °FScattered showers. Scattered clouds.7 mph66%30.09 "HgN/A
2:50 pm41 °FScattered showers. Scattered clouds.16 mph81%30.09 "HgN/A
2:20 pm46 °FSprinkles. Broken clouds.14 mph53%30.09 "HgN/A
1:50 pm46 °FScattered showers. Scattered clouds.10 mph50%30.09 "HgN/A
1:20 pm45 °FScattered showers. Partly sunny.10 mph57%30.09 "HgN/A
12:50 pm46 °FScattered showers. Scattered clouds.10 mph57%30.09 "HgN/A
12:20 pm46 °FScattered showers. Partly sunny.13 mph53%30.09 "HgN/A
11:50 am45 °FScattered showers. Partly sunny.12 mph61%30.09 "HgN/A
11:20 am45 °FPartly sunny.14 mph61%30.09 "HgN/A
10:50 am45 °FBroken clouds.12 mph61%30.09 "HgN/A
10:20 am41 °FPartly sunny.13 mph70%30.09 "HgN/A
9:50 am43 °FBroken clouds.13 mph66%30.09 "HgN/A
9:20 am41 °FScattered clouds.13 mph70%30.09 "HgN/A
8:50 am41 °FPartly sunny.12 mph70%30.09 "HgN/A
8:20 am39 °FScattered clouds.13 mph75%30.09 "HgN/A
7:50 am39 °FPartly sunny.13 mph75%30.07 "HgN/A
7:20 am37 °FPassing clouds.13 mph81%30.07 "HgN/A
6:50 am37 °FScattered clouds.12 mph81%30.07 "HgN/A
6:20 am37 °FPartly sunny.12 mph81%30.07 "HgN/A
5:50 am37 °FPartly sunny.10 mph87%30.07 "HgN/A
5:20 am37 °FPassing clouds.13 mph81%30.04 "HgN/A
4:50 am37 °FPassing clouds.13 mph87%30.04 "HgN/A
4:20 am37 °FMostly cloudy.10 mph87%30.04 "HgN/A
3:50 am37 °FMostly cloudy.10 mph87%30.04 "HgN/A
3:20 am37 °FMostly cloudy.9 mph87%30.04 "HgN/A
2:50 am37 °FMostly cloudy.9 mph87%30.04 "HgN/A
2:20 am37 °FPartly cloudy.10 mph87%30.04 "HgN/A
1:50 am37 °FOvercast.10 mph87%30.04 "HgN/A
1:20 am37 °FPassing clouds.9 mph87%30.04 "HgN/A
12:50 am37 °FPassing clouds.10 mph87%30.04 "HgN/A
12:20 am36 °FPassing clouds.9 mph100%30.04 "HgN/A
11:50 pm
Tue, Apr 25
36 °FPassing clouds.7 mph100%30.04 "HgN/A
11:20 pm36 °FPartly cloudy.7 mph100%30.04 "HgN/A
10:50 pm37 °FPassing clouds.7 mph93%30.01 "HgN/A
10:20 pm39 °FPassing clouds.10 mph87%30.01 "HgN/A
9:50 pm39 °FPassing clouds.13 mph87%30.01 "HgN/A
9:20 pm37 °FPassing clouds.9 mph93%30.01 "HgN/A
8:50 pm37 °FClear.6 mph93%30.01 "Hg10 mi
8:20 pm37 °FPassing clouds.6 mph93%29.98 "HgN/A
Weather by CustomWeather, © 2017

See weather overviewHow to use our weather pages